map of TGI home
Great Circle Mapper logo
TGI - Airport
Location
City:  Tingo Maria, Perú
ICAO / IATA:SPGM / TGI

Details
Type:Airport (Aerodrome, Airfield)
Latitude:9°17'21"S (-9.289166)
Longitude:76°00'18"W (-76.004999)
Elevation:2010 ft (613 m)
Runways:1
Longest:6890 × 98 ft (2100 × 30 m)

Time
Time Zone:UTC-5
Local Time:

Weather
METAR:SPGM 301900Z 00000KT 9999 FEW040 30/19 Q1018 RMK BIRD HAZARD RWY 19 PP000
TAF:SPGM 301710Z 3018/3118 25005KT 9999 SCT040 SCT100 TX31/3020Z TN20/3110Z
TEMPO 3019/3022 BKN030 SCT060
TEMPO 3110/3214 18005KT 8000 BKN030 SCT050

Related Locations
Nearby:
Farthest:PQC: 12369 mi / 19906 km
Phú Quóc [Intl], VN

Find:

   beyond  
but within

Other Information
Maps:
NOTAMs:
Links:
Sources:

  
flag of Perú   

Sectional Chart

Flight Planning
at skyvector.com

Satellite Image

Google Maps Satellite View

 

Copyright © 2004-2014 Karl L. Swartz. All rights reserved.
The Great Circle Mapper name and logo are trademarks of the Great Circle Mapper.
All other trademarks mentioned herein belong to their respective owners.
Please see credits for attibutions and further copyright information.

  Follow gcmap on Facebook Follow gcmap on Twitter

hCard Microformat

Geo Microformat